K9SCH Weather Reports


Display with metric or nautical units.
time (UTC)temp
F
wind
direction
speed
MPH
gust
MPH
rain 1hr
in
rain 24hr
in
rain mn
in
humidity
%
barometer
mb
20260506032516 68 293 4.0 8.0 0.00 0.04 0.04 30 1012.3
20260506031517 68 293 3.0 7.0 0.00 0.04 0.04 30 1012.2
20260506030516 68 293 4.0 7.0 0.00 0.04 0.04 30 1012.0
20260506025537 69 293 4.0 7.0 0.00 0.04 0.04 30 1012.0
20260506024518 69 293 4.0 8.0 0.00 0.04 0.04 30 1011.9
20260506023516 69 293 4.0 7.0 0.00 0.04 0.04 30 1011.7
20260506022516 69 293 4.0 8.0 0.00 0.04 0.04 30 1011.5
20260506021519 69 293 6.0 13.0 0.00 0.04 0.04 30 1011.3
20260506020538 70 293 5.0 11.0 0.00 0.04 0.04 29 1011.1
20260506015517 71 293 8.0 12.0 0.00 0.04 0.04 29 1011.0
20260506014517 71 293 7.0 17.0 0.00 0.04 0.04 29 1011.0
20260506013519 71 293 7.0 13.0 0.00 0.04 0.04 29 1011.0
20260506012518 72 293 7.0 13.0 0.00 0.04 0.04 29 1010.9
20260506011539 72 293 6.0 11.0 0.00 0.04 0.04 29 1010.8
20260506010516 73 293 5.0 13.0 0.00 0.04 0.04 29 1010.8
20260506005516 72 293 8.0 16.0 0.00 0.04 0.04 29 1010.5
20260506004516 73 293 8.0 14.0 0.00 0.04 0.04 29 1010.6
20260506003516 73 293 8.0 16.0 0.00 0.04 0.04 29 1010.5
20260506002537 72 270 7.0 14.0 0.00 0.04 0.04 30 1010.3
20260506001516 72 293 5.0 12.0 0.00 0.04 0.04 30 1010.3
20260506000516 73 293 8.0 14.0 0.00 0.04 0.04 30 1010.3
20260505235517 73 293 6.0 14.0 0.00 0.04 0.04 30 1010.4
20260505234519 74 270 8.0 14.0 0.00 0.04 0.04 29 1010.3
20260505233536 74 293 7.0 14.0 0.00 0.04 0.04 29 1010.1
20260505232516 74 270 7.0 13.0 0.00 0.04 0.04 30 1010.2
20260505231516 74 270 7.0 12.0 0.00 0.04 0.04 31 1010.2
20260505230516 74 270 10.0 18.0 0.00 0.04 0.04 31 1010.1
20260505225520 74 270 8.0 12.0 0.00 0.04 0.04 31 1010.1
20260505224537 74 293 7.0 12.0 0.00 0.04 0.04 31 1010.2
20260505223516 74 270 9.0 15.0 0.00 0.04 0.04 31 1010.2
20260505222516 74 270 10.0 16.0 0.00 0.04 0.04 32 1010.3
20260505221517 75 270 11.0 19.0 0.00 0.04 0.04 30 1010.6
20260505220517 74 270 6.0 15.0 0.00 0.04 0.04 33 1010.5
20260505215538 74 248 12.0 21.0 0.00 0.04 0.04 31 1010.6
20260505214517 74 270 9.0 18.0 0.00 0.04 0.04 34 1010.7
20260505213516 75 270 9.0 19.0 0.00 0.04 0.04 33 1010.8
20260505212516 76 203 10.0 16.0 0.00 0.04 0.04 27 1010.8
20260505211516 76 270 13.0 22.0 0.00 0.04 0.04 27 1010.9
20260505210536 74 248 11.0 18.0 0.00 0.04 0.04 27 1011.0
20260505205516 75 248 12.0 21.0 0.00 0.04 0.04 27 1011.4
20260505204516 74 248 19.0 32.0 0.00 0.04 0.04 29 1011.3
20260505203516 75 225 12.0 23.0 0.00 0.04 0.04 30 1011.4
20260505202516 75 248 14.0 23.0 0.00 0.04 0.04 28 1011.4
20260505201536 74 248 12.0 25.0 0.00 0.04 0.04 31 1011.6
20260505200517 74 248 10.0 23.0 0.00 0.04 0.04 33 1011.6
20260505195519 73 203 9.0 23.0 0.00 0.04 0.04 35 1011.7
20260505194516 73 248 11.0 22.0 0.00 0.04 0.04 35 1011.7
20260505193516 71 248 12.0 21.0 0.00 0.04 0.04 39 1011.9
20260505192536 71 248 10.0 17.0 0.00 0.04 0.04 45 1012.1
20260505191516 70 248 9.0 15.0 0.00 0.04 0.04 48 1012.1
20260505190516 70 248 8.0 16.0 0.00 0.04 0.04 48 1012.3
20260505185516 72 248 7.0 18.0 0.00 0.04 0.04 48 1012.3
20260505184516 71 248 8.0 15.0 0.00 0.04 0.04 47 1012.6
20260505183536 71 248 9.0 15.0 0.00 0.04 0.04 48 1012.4
20260505182519 70 203 6.0 12.0 0.00 0.04 0.04 51 1012.5
20260505181516 68 248 9.0 16.0 0.00 0.04 0.04 54 1012.4
20260505180516 70 248 7.0 13.0 0.00 0.04 0.04 53 1012.5
20260505175516 68 248 6.0 9.0 0.00 0.04 0.04 58 1012.4
20260505174536 68 225 7.0 12.0 0.00 0.04 0.04 58 1012.6
20260505173516 68 248 5.0 12.0 0.00 0.04 0.04 57 1012.5
20260505172516 67 248 6.0 10.0 0.00 0.04 0.04 60 1012.6
20260505171516 67 248 6.0 10.0 0.00 0.04 0.04 61 1012.5
20260505170516 67 248 6.0 9.0 0.00 0.04 0.04 61 1012.5
20260505165536 67 248 7.0 13.0 0.00 0.04 0.04 63 1012.5
20260505164519 66 248 10.0 16.0 0.00 0.04 0.04 65 1012.5
20260505163517 65 248 6.0 11.0 0.00 0.04 0.04 72 1012.4
20260505162517 65 225 6.0 12.0 0.00 0.04 0.04 74 1012.4
20260505161517 64 248 8.0 12.0 0.00 0.04 0.04 78 1012.3
20260505160536 64 248 6.0 10.0 0.00 0.04 0.04 83 1012.2
20260505152516 61 225 3.0 8.0 0.00 0.04 0.04 95 1011.9
20260505151536 61 248 2.0 6.0 0.00 0.04 0.04 95 1011.9
20260505150515 61 135 3.0 7.0 0.00 0.04 0.04 95 1011.9
20260505140519 59 135 2.0 5.0 0.00 0.04 0.04 95 1011.7
20260505124516 0 0.0 0.0 0.00 0.04 0.04
20260505124018 0 0.0 0.0 0.00 0.04 0.04
20260505123643 0 0.0 0.0 0.00 0.04 0.04
20260505123017 0 0.0 0.0 0.00 0.04 0.04
20260505122016 0 0.0 0.0 0.00 0.04 0.04
20260505121509 0 0.0 0.0 0.00 0.04 0.04
20260505121118 0 0.0 0.0 0.00 0.04 0.04
20260505120536 0 0.0 0.0 0.00 0.04 0.04
20260505115515 0 0.0 0.0 0.00 0.04 0.04
20260505115008 0 0.0 0.0 0.00 0.04 0.04
20260505114618 0 0.0 0.0 0.00 0.04 0.04
20260505114015 0 0.0 0.0 0.00 0.04 0.04
20260505113036 0 0.0 0.0 0.00 0.04 0.04
20260505112515 0 0.0 0.0 0.00 0.04 0.04
20260505112125 0 0.0 0.0 0.00 0.04 0.04
20260505111516 0 0.0 0.0 0.00 0.04 0.04
20260505110515 0 0.0 0.0 0.00 0.04 0.04
20260505101515 0 0.0 0.0 0.03 0.04 0.04
20260505101025 59 0.0 0.0 0.03 0.04 0.04 94 1012.0
20260505100518 59 277 1.0 0.0 0.03 0.04 0.04 94 1012.0
20260505100114 59 270 1.0 2.0 0.03 0.04 0.04 94 1011.9
20260505095019 59 0.0 1.0 0.03 0.04 0.04 94 1011.9
20260505094016 59 0.0 1.0 0.02 0.03 0.03 94 1011.9
20260505093016 59 0.0 2.0 0.01 0.02 0.02 94 1012.1
20260505092016 59 0.0 1.0 0.01 0.01 0.01 94 1012.0
20260505091037 59 248 2.0 3.0 0.01 0.01 0.01 94 1012.2
20260505090016 59 248 2.0 5.0 0.01 0.01 0.01 94 1012.2
20260505085018 59 225 2.0 4.0 0.01 0.01 0.01 94 1012.4
20260505084018 58 203 1.0 3.0 0.01 0.01 0.01 93 1012.6
20260505083016 59 225 2.0 5.0 0.01 0.01 0.01 93 1012.6
20260505082036 58 180 2.0 6.0 0.00 0.00 0.00 93 1012.6
20260505081016 58 203 3.0 6.0 0.00 0.00 0.00 93 1012.8
20260505080016 58 0.0 2.0 0.00 0.00 0.00 92 1012.8
20260505075016 58 203 2.0 5.0 0.00 0.00 0.00 91 1012.7
20260505074016 60 135 6.0 12.0 0.00 0.00 0.00 87 1012.3
20260505073037 62 135 6.0 11.0 0.00 0.00 0.00 75 1012.7
20260505072016 62 135 5.0 11.0 0.00 0.00 0.00 72 1012.6
20260505071016 62 135 5.0 13.0 0.00 0.00 0.00 70 1012.7
20260505070017 63 158 6.0 13.0 0.00 0.00 0.00 69 1012.7
20260505065016 63 158 7.0 13.0 0.00 0.00 0.00 68 1012.6
20260505064040 63 135 6.0 10.0 0.00 0.00 0.00 66 1012.7
20260505063016 64 135 5.0 10.0 0.00 0.00 0.00 64 1012.8
20260505062016 64 158 6.0 13.0 0.00 0.00 0.00 62 1013.0
20260505061016 64 180 5.0 12.0 0.00 0.00 0.00 60 1013.1
20260505060016 65 158 5.0 11.0 0.00 0.00 0.00 58 1013.2
20260505055036 65 158 5.0 9.0 0.00 0.00 0.00 54 1013.1
20260505054015 66 158 6.0 12.0 0.00 0.00 0.00 54 1013.1
20260505053016 66 158 7.0 14.0 0.00 0.00 0.00 52 1013.0
20260505052016 66 158 7.0 14.0 0.00 0.00 0.00 52 1012.9
20260505051016 66 158 5.0 13.0 0.00 0.00 0.00 53 1012.9
20260505050536 66 158 6.0 13.0 0.00 0.00 0.00 53 1012.9
20260505041536 66 180 5.0 13.0 0.00 0.00 0.00 49 1012.6
20260505040515 66 158 6.0 13.0 0.00 0.00 0.00 49 1012.5
20260505035515 66 158 8.0 16.0 0.00 0.00 0.00 48 1012.2
20260505034518 67 158 7.0 14.0 0.00 0.00 0.00 48 1012.1
20260505033515 67 158 7.0 13.0 0.00 0.00 0.00 47 1011.8